N4JAH-WX Weather Reports


Display with metric or nautical units.
time (UTC)temp
F
wind
direction
speed
MPH
gust
MPH
rain 1hr
in
rain 24hr
in
rain mn
in
humidity
%
barometer
mb
20210422230939 61 103 0.0 11.0 0.00 0.00 0.00 34 1019.8
20210422230439 62 35 2.0 9.0 0.00 0.00 0.00 34 1019.8
20210422225939 62 26 0.0 9.0 0.00 0.00 0.00 35 1019.8
20210422225439 62 29 0.0 9.0 0.00 0.00 0.00 34 1019.8
20210422224939 62 26 1.0 9.0 0.00 0.00 0.00 33 1019.9
20210422224439 62 36 3.0 9.0 0.00 0.00 0.00 33 1020.0
20210422223938 63 40 4.0 9.0 0.00 0.00 0.00 33 1020.0
20210422223439 63 33 1.0 9.0 0.00 0.00 0.00 33 1020.0
20210422222938 63 66 0.0 9.0 0.00 0.00 0.00 33 1020.0
20210422222438 63 32 1.0 9.0 0.00 0.00 0.00 32 1020.0
20210422221938 63 75 2.0 9.0 0.00 0.00 0.00 32 1020.1
20210422221438 63 33 0.0 9.0 0.00 0.00 0.00 33 1020.0
20210422220938 64 17 5.0 9.0 0.00 0.00 0.00 33 1020.0
20210422220437 64 39 2.0 5.0 0.00 0.00 0.00 32 1020.0
20210422215937 64 44 0.0 5.0 0.00 0.00 0.00 32 1019.9
20210422215437 63 33 0.0 5.0 0.00 0.00 0.00 33 1019.9
20210422214937 63 34 3.0 5.0 0.00 0.00 0.00 33 1019.9
20210422214437 63 28 2.0 5.0 0.00 0.00 0.00 33 1020.0
20210422213937 63 27 0.0 5.0 0.00 0.00 0.00 33 1019.9
20210422213436 63 28 4.0 5.0 0.00 0.00 0.00 33 1019.9
20210422212937 63 39 6.0 5.0 0.00 0.00 0.00 32 1020.0
20210422212436 63 43 10.0 5.0 0.00 0.00 0.00 32 1020.0
20210422211936 64 34 0.0 5.0 0.00 0.00 0.00 31 1019.9
20210422211436 64 24 8.0 5.0 0.00 0.00 0.00 32 1020.0
20210422210936 64 28 1.0 5.0 0.00 0.00 0.00 33 1020.0
20210422210436 64 59 1.0 12.0 0.00 0.00 0.00 31 1020.1
20210422205936 64 188 3.0 12.0 0.00 0.00 0.00 33 1020.2
20210422205436 64 47 2.0 12.0 0.00 0.00 0.00 35 1020.2
20210422204935 63 248 0.0 12.0 0.00 0.00 0.00 34 1020.2
20210422204435 63 244 0.0 12.0 0.00 0.00 0.00 33 1020.4
20210422203935 63 36 2.0 12.0 0.00 0.00 0.00 33 1020.4
20210422203435 62 101 1.0 12.0 0.00 0.00 0.00 33 1020.5
20210422202935 62 351 1.0 12.0 0.00 0.00 0.00 32 1020.6
20210422202435 63 15 3.0 12.0 0.00 0.00 0.00 32 1020.6
20210422201934 64 15 0.0 12.0 0.00 0.00 0.00 33 1020.7
20210422201434 64 355 2.0 12.0 0.00 0.00 0.00 33 1020.8
20210422200434 63 47 1.0 13.0 0.00 0.00 0.00 33 1020.8
20210422195934 62 26 4.0 13.0 0.00 0.00 0.00 32 1020.9
20210422195434 62 35 3.0 13.0 0.00 0.00 0.00 30 1021.0
20210422194934 62 29 2.0 13.0 0.00 0.00 0.00 32 1021.2
20210422194433 62 39 0.0 13.0 0.00 0.00 0.00 31 1021.2
20210422193933 62 28 5.0 13.0 0.00 0.00 0.00 33 1021.1
20210422193433 62 17 8.0 13.0 0.00 0.00 0.00 34 1021.2
20210422192933 62 40 2.0 13.0 0.00 0.00 0.00 32 1021.4
20210422192433 62 45 1.0 13.0 0.00 0.00 0.00 33 1021.2
20210422191932 62 17 0.0 13.0 0.00 0.00 0.00 34 1021.3
20210422191433 61 48 0.0 13.0 0.00 0.00 0.00 36 1021.4
20210422190933 61 44 3.0 13.0 0.00 0.00 0.00 35 1021.4
20210422190432 61 227 1.0 10.0 0.00 0.00 0.00 35 1021.6
20210422185932 61 128 1.0 10.0 0.00 0.00 0.00 33 1021.8
20210422185432 60 33 3.0 10.0 0.00 0.00 0.00 35 1021.9
20210422184932 60 271 1.0 10.0 0.00 0.00 0.00 35 1021.9
20210422184431 60 32 4.0 10.0 0.00 0.00 0.00 33 1022.0
20210422183931 59 5 5.0 10.0 0.00 0.00 0.00 35 1022.0
20210422183431 60 13 0.0 10.0 0.00 0.00 0.00 34 1021.9
20210422182931 59 11 0.0 10.0 0.00 0.00 0.00 34 1022.0
20210422182431 59 59 0.0 10.0 0.00 0.00 0.00 34 1022.1
20210422181931 58 30 0.0 10.0 0.00 0.00 0.00 35 1022.1
20210422181431 59 15 7.0 10.0 0.00 0.00 0.00 34 1022.2
20210422180931 59 44 3.0 10.0 0.00 0.00 0.00 34 1022.4
20210422180431 58 24 2.0 11.0 0.00 0.00 0.00 35 1022.2
20210422175930 58 24 2.0 11.0 0.00 0.00 0.00 33 1022.4
20210422175430 59 25 5.0 11.0 0.00 0.00 0.00 33 1022.5
20210422174930 59 40 0.0 11.0 0.00 0.00 0.00 34 1022.5
20210422174430 58 263 1.0 11.0 0.00 0.00 0.00 34 1022.7
20210422173930 58 12 2.0 11.0 0.00 0.00 0.00 34 1022.7
20210422173430 58 28 0.0 11.0 0.00 0.00 0.00 34 1022.8
20210422172929 58 329 2.0 11.0 0.00 0.00 0.00 34 1022.8
20210422172429 58 17 7.0 11.0 0.00 0.00 0.00 34 1023.1
20210422171929 58 26 3.0 11.0 0.00 0.00 0.00 34 1022.9
20210422171429 58 16 5.0 11.0 0.00 0.00 0.00 35 1023.1
20210422170929 57 5 3.0 11.0 0.00 0.00 0.00 34 1023.1
20210422170429 57 24 1.0 10.0 0.00 0.00 0.00 37 1023.2
20210422165428 58 23 4.0 10.0 0.00 0.00 0.00 37 1023.2
20210422164929 58 255 1.0 10.0 0.00 0.00 0.00 34 1023.4
20210422164428 58 40 5.0 10.0 0.00 0.00 0.00 36 1023.3
20210422163928 58 53 1.0 10.0 0.00 0.00 0.00 35 1023.4
20210422163428 57 161 0.0 10.0 0.00 0.00 0.00 37 1023.4
20210422162928 56 161 0.0 10.0 0.00 0.00 0.00 33 1023.7
20210422162427 56 22 1.0 10.0 0.00 0.00 0.00 33 1023.9
20210422161927 57 30 9.0 10.0 0.00 0.00 0.00 34 1024.0
20210422161427 57 290 3.0 10.0 0.00 0.00 0.00 33 1024.0
20210422160927 57 13 1.0 10.0 0.00 0.00 0.00 36 1024.2
20210422160427 56 40 2.0 8.0 0.00 0.00 0.00 36 1024.2
20210422155927 55 25 2.0 8.0 0.00 0.00 0.00 35 1024.3
20210422155427 55 15 1.0 8.0 0.00 0.00 0.00 33 1024.2
20210422154926 56 5 2.0 8.0 0.00 0.00 0.00 34 1024.2
20210422154426 55 140 0.0 8.0 0.00 0.00 0.00 35 1024.1
20210422153926 55 13 0.0 8.0 0.00 0.00 0.00 34 1024.2
20210422153426 55 267 4.0 8.0 0.00 0.00 0.00 35 1024.2
20210422152926 55 267 3.0 8.0 0.00 0.00 0.00 36 1024.3
20210422152426 55 269 0.0 8.0 0.00 0.00 0.00 37 1024.3
20210422151925 55 276 0.0 8.0 0.00 0.00 0.00 38 1024.3
20210422151425 54 276 0.0 8.0 0.00 0.00 0.00 35 1024.3
20210422150925 54 265 0.0 8.0 0.00 0.00 0.00 38 1024.4
20210422150425 53 266 0.0 6.0 0.00 0.00 0.00 38 1024.3
20210422145925 52 267 0.0 6.0 0.00 0.00 0.00 39 1024.5
20210422145425 52 40 2.0 6.0 0.00 0.00 0.00 38 1024.3
20210422144925 52 21 1.0 6.0 0.00 0.00 0.00 37 1024.4
20210422144425 53 42 1.0 6.0 0.00 0.00 0.00 38 1024.5
20210422143924 53 189 0.0 6.0 0.00 0.00 0.00 37 1024.6
20210422143424 53 13 0.0 6.0 0.00 0.00 0.00 40 1024.7
20210422142925 52 236 1.0 6.0 0.00 0.00 0.00 39 1024.6
20210422142424 51 5 0.0 6.0 0.00 0.00 0.00 42 1024.5
20210422141924 51 20 8.0 6.0 0.00 0.00 0.00 43 1024.6
20210422141424 51 46 5.0 6.0 0.00 0.00 0.00 41 1024.5
20210422140924 52 314 1.0 6.0 0.00 0.00 0.00 44 1024.5
20210422140423 51 40 2.0 3.0 0.00 0.00 0.00 45 1024.5
20210422135924 51 41 0.0 3.0 0.00 0.00 0.00 47 1024.4
20210422135423 51 341 3.0 3.0 0.00 0.00 0.00 47 1024.4
20210422134923 50 155 2.0 3.0 0.00 0.00 0.00 47 1024.4
20210422134423 50 56 0.0 3.0 0.00 0.00 0.00 50 1024.4
20210422133923 49 21 0.0 3.0 0.00 0.00 0.00 52 1024.3
20210422133423 48 21 0.0 3.0 0.00 0.00 0.00 53 1024.3
20210422132922 47 21 5.0 3.0 0.00 0.00 0.00 54 1024.2
20210422132422 47 28 1.0 3.0 0.00 0.00 0.00 56 1024.1
20210422131922 47 28 2.0 3.0 0.00 0.00 0.00 56 1024.1
20210422131422 47 69 1.0 3.0 0.00 0.00 0.00 58 1024.1
20210422130922 46 69 0.0 3.0 0.00 0.00 0.00 62 1024.2
20210422130422 46 69 0.0 0.0 0.00 0.00 0.00 61 1024.2
20210422125922 45 69 2.0 0.0 0.00 0.00 0.00 67 1024.1
20210422125421 44 69 0.0 0.0 0.00 0.00 0.00 66 1024.1
20210422124921 44 69 2.0 0.0 0.00 0.00 0.00 68 1023.9
20210422124422 43 69 0.0 0.0 0.00 0.00 0.00 70 1023.8
20210422123921 41 69 0.0 0.0 0.00 0.00 0.00 73 1023.8
20210422123421 40 69 0.0 0.0 0.00 0.00 0.00 74 1023.7
20210422122921 38 69 0.0 0.0 0.00 0.00 0.00 77 1023.8
20210422122420 37 69 0.0 0.0 0.00 0.00 0.00 79 1023.7
20210422121920 35 69 0.0 0.0 0.00 0.00 0.00 83 1023.6
20210422121420 34 69 0.0 0.0 0.00 0.00 0.00 84 1023.5
20210422120920 34 69 0.0 0.0 0.00 0.00 0.00 85 1023.5
20210422120420 34 69 0.0 0.0 0.00 0.00 0.00 86 1023.5
20210422115920 33 69 0.0 0.0 0.00 0.00 0.00 86 1023.3
20210422115420 32 69 0.0 0.0 0.00 0.00 0.00 86 1023.4
20210422114920 32 69 0.0 0.0 0.00 0.00 0.00 86 1023.3
20210422114419 32 69 0.0 0.0 0.00 0.00 0.00 86 1023.2
20210422113919 32 69 0.0 0.0 0.00 0.00 0.00 86 1022.9
20210422113419 31 69 0.0 0.0 0.00 0.00 0.00 86 1022.9
20210422112919 31 69 0.0 0.0 0.00 0.00 0.00 85 1022.8
20210422112419 31 69 0.0 0.0 0.00 0.00 0.00 85 1022.8
20210422111919 31 69 0.0 0.0 0.00 0.00 0.00 84 1022.7
20210422111419 31 69 0.0 0.0 0.00 0.00 0.00 84 1022.7
20210422110918 31 69 0.0 0.0 0.00 0.00 0.00 84 1022.8
20210422110418 31 69 0.0 1.0 0.00 0.00 0.00 83 1022.8
20210422105918 31 69 0.0 1.0 0.00 0.00 0.00 82 1022.7
20210422105418 31 69 0.0 1.0 0.00 0.00 0.00 82 1022.7
20210422104918 32 69 0.0 1.0 0.00 0.00 0.00 82 1022.7
20210422104418 32 69 0.0 1.0 0.00 0.00 0.00 82 1022.8
20210422103917 32 69 0.0 1.0 0.00 0.00 0.00 81 1022.8
20210422103417 32 69 0.0 1.0 0.00 0.00 0.00 81 1022.7
20210422102918 32 69 0.0 1.0 0.00 0.00 0.00 81 1022.6
20210422102417 33 69 0.0 1.0 0.00 0.00 0.00 80 1022.4
20210422101917 33 69 0.0 1.0 0.00 0.00 0.00 79 1022.3
20210422101417 33 69 0.0 1.0 0.00 0.00 0.00 79 1022.2
20210422100916 33 69 0.0 1.0 0.00 0.00 0.00 78 1022.3
20210422100416 34 69 0.0 5.0 0.00 0.00 0.00 78 1022.2
20210422095916 34 69 0.0 5.0 0.00 0.00 0.00 77 1022.2
20210422095416 34 69 0.0 5.0 0.00 0.00 0.00 77 1022.3
20210422094916 34 69 0.0 5.0 0.00 0.00 0.00 76 1022.2
20210422094416 35 69 0.0 5.0 0.00 0.00 0.00 74 1022.0
20210422093916 35 69 0.0 5.0 0.00 0.00 0.00 74 1021.9
20210422093416 36 69 0.0 5.0 0.00 0.00 0.00 72 1021.9
20210422092916 36 69 0.0 5.0 0.00 0.00 0.00 71 1021.8
20210422092415 36 69 0.0 5.0 0.00 0.00 0.00 70 1021.8
20210422091915 37 69 0.0 5.0 0.00 0.00 0.00 70 1021.7
20210422091415 37 69 0.0 5.0 0.00 0.00 0.00 69 1021.6
20210422090915 37 69 0.0 5.0 0.00 0.00 0.00 68 1021.6
20210422090415 37 26 0.0 5.0 0.00 0.00 0.00 68 1021.4
20210422085914 38 26 0.0 5.0 0.00 0.00 0.00 68 1021.4
20210422085415 37 26 3.0 5.0 0.00 0.00 0.00 68 1021.5
20210422084914 37 26 2.0 5.0 0.00 0.00 0.00 68 1021.5
20210422084414 37 22 3.0 5.0 0.00 0.00 0.00 68 1021.6
20210422083914 37 21 0.0 5.0 0.00 0.00 0.00 68 1021.5
20210422083414 38 21 1.0 5.0 0.00 0.00 0.00 68 1021.6
20210422082914 38 21 0.0 5.0 0.00 0.00 0.00 68 1021.5
20210422082413 38 18 0.0 5.0 0.00 0.00 0.00 68 1021.3
20210422081914 38 52 0.0 5.0 0.00 0.00 0.00 68 1021.3
20210422081413 38 52 0.0 5.0 0.00 0.00 0.00 68 1021.4
20210422080913 38 33 0.0 5.0 0.00 0.00 0.00 68 1021.5
20210422080413 38 36 0.0 4.0 0.00 0.00 0.00 68 1021.4
20210422075913 38 25 0.0 4.0 0.00 0.00 0.00 68 1021.4
20210422075413 38 22 2.0 4.0 0.00 0.00 0.00 68 1021.3
20210422074912 38 23 0.0 4.0 0.00 0.00 0.00 68 1021.3
20210422074412 38 23 1.0 4.0 0.00 0.00 0.00 68 1021.3
20210422073912 38 20 3.0 4.0 0.00 0.00 0.00 67 1021.3
20210422073412 38 20 0.0 4.0 0.00 0.00 0.00 67 1021.3
20210422072912 38 22 1.0 4.0 0.00 0.00 0.00 67 1021.3
20210422072412 38 33 4.0 4.0 0.00 0.00 0.00 67 1021.3
20210422071912 38 28 3.0 4.0 0.00 0.00 0.00 67 1021.4
20210422071412 38 28 3.0 4.0 0.00 0.00 0.00 67 1021.3
20210422070911 38 26 2.0 4.0 0.00 0.00 0.00 66 1021.3
20210422070411 38 24 1.0 4.0 0.00 0.00 0.00 66 1021.1
20210422065911 38 24 0.0 4.0 0.00 0.00 0.00 66 1021.1
20210422065411 39 24 1.0 4.0 0.00 0.00 0.00 65 1021.1
20210422064911 39 24 0.0 4.0 0.00 0.00 0.00 65 1021.1
20210422064411 39 24 0.0 4.0 0.00 0.00 0.00 64 1021.2
20210422063910 39 24 0.0 4.0 0.00 0.00 0.00 64 1021.1
20210422063410 39 24 0.0 4.0 0.00 0.00 0.00 63 1021.2
20210422062910 39 24 0.0 4.0 0.00 0.00 0.00 63 1021.2
20210422062410 39 18 0.0 4.0 0.00 0.00 0.00 63 1021.2
20210422061910 39 17 0.0 4.0 0.00 0.00 0.00 62 1021.2
20210422061410 40 17 0.0 4.0 0.00 0.00 0.00 62 1021.3
20210422060910 40 17 0.0 4.0 0.00 0.00 0.00 62 1021.3
20210422060409 40 17 0.0 5.0 0.00 0.00 0.00 61 1021.4
20210422055909 40 17 0.0 5.0 0.00 0.00 0.00 61 1021.5
20210422055409 40 17 1.0 5.0 0.00 0.00 0.00 61 1021.5
20210422054909 40 17 0.0 5.0 0.00 0.00 0.00 60 1021.6
20210422054409 40 17 2.0 5.0 0.00 0.00 0.00 60 1021.7
20210422053909 40 17 1.0 5.0 0.00 0.00 0.00 60 1021.6
20210422053408 41 16 0.0 5.0 0.00 0.00 0.00 59 1021.7
20210422052909 41 16 0.0 5.0 0.00 0.00 0.00 59 1021.7
20210422052408 41 16 0.0 5.0 0.00 0.00 0.00 58 1021.8
20210422051908 41 15 0.0 5.0 0.00 0.00 0.00 58 1021.7
20210422051408 41 15 1.0 5.0 0.00 0.00 0.00 58 1021.8
20210422050908 41 15 1.0 5.0 0.00 0.00 0.00 57 1021.8
20210422050408 41 15 0.0 11.0 0.00 0.00 0.00 57 1021.7
20210422045908 41 15 1.0 11.0 0.00 0.00 0.00 57 1021.8
20210422045407 41 15 0.0 11.0 0.00 0.00 0.00 56 1021.8
20210422044907 42 15 3.0 11.0 0.00 0.00 0.00 56 1021.7
20210422044407 42 48 0.0 11.0 0.00 0.00 0.00 55 1021.6
20210422043907 42 48 0.0 11.0 0.00 0.00 0.00 55 1021.5
20210422043407 42 27 3.0 11.0 0.00 0.00 0.00 54 1021.5
20210422042907 42 24 1.0 11.0 0.00 0.00 0.00 54 1021.5
20210422042407 43 16 2.0 11.0 0.00 0.00 0.00 53 1021.5
20210422041906 43 16 3.0 11.0 0.00 0.00 0.00 53 1021.6
20210422041406 43 9 1.0 11.0 0.00 0.00 0.00 53 1021.6
20210422040906 43 49 1.0 11.0 0.00 0.00 0.00 52 1021.2
20210422040406 43 15 5.0 16.0 0.00 0.00 0.00 52 1021.3
20210422035906 43 40 0.0 16.0 0.00 0.00 0.00 52 1021.3
20210422035405 43 24 1.0 16.0 0.00 0.00 0.00 52 1021.2
20210422034906 43 23 5.0 16.0 0.00 0.00 0.00 52 1021.1
20210422034406 44 33 3.0 16.0 0.00 0.00 0.00 52 1021.2
20210422033905 44 24 4.0 16.0 0.00 0.00 0.00 52 1021.1
20210422033405 44 41 1.0 16.0 0.00 0.00 0.00 51 1021.1
20210422032905 44 151 1.0 16.0 0.00 0.00 0.00 51 1020.9
20210422032405 44 30 0.0 16.0 0.00 0.00 0.00 51 1020.9
20210422031905 44 49 2.0 16.0 0.00 0.00 0.00 51 1020.7
20210422031405 45 32 2.0 16.0 0.00 0.00 0.00 50 1020.8
20210422030904 45 40 0.0 16.0 0.00 0.00 0.00 50 1020.9
20210422030404 45 30 0.0 15.0 0.00 0.00 0.00 50 1020.8
20210422025904 45 32 3.0 15.0 0.00 0.00 0.00 49 1020.7
20210422025404 45 34 0.0 15.0 0.00 0.00 0.00 49 1020.6
20210422024904 45 174 3.0 15.0 0.00 0.00 0.00 49 1020.4
20210422024404 46 25 4.0 15.0 0.00 0.00 0.00 48 1020.3
20210422023903 46 36 4.0 15.0 0.00 0.00 0.00 48 1020.2
20210422023403 46 17 2.0 15.0 0.00 0.00 0.00 48 1020.2
20210422022903 46 49 4.0 15.0 0.00 0.00 0.00 47 1020.3
20210422022403 46 26 1.0 15.0 0.00 0.00 0.00 47 1020.0
20210422021903 46 22 3.0 15.0 0.00 0.00 0.00 48 1020.0
20210422021403 47 28 6.0 15.0 0.00 0.00 0.00 48 1019.9
20210422020902 47 33 1.0 15.0 0.00 0.00 0.00 48 1019.8
20210422020402 47 25 4.0 12.0 0.00 0.00 0.00 48 1019.7
20210422015902 47 24 0.0 12.0 0.00 0.00 0.00 48 1019.7
20210422015402 48 38 2.0 12.0 0.00 0.00 0.00 48 1019.7
20210422014902 48 40 1.0 12.0 0.00 0.00 0.00 48 1019.5
20210422014402 48 44 0.0 12.0 0.00 0.00 0.00 48 1019.4
20210422013902 48 37 0.0 12.0 0.00 0.00 0.00 48 1019.0
20210422013402 49 21 1.0 12.0 0.00 0.00 0.00 48 1018.9
20210422012901 49 40 0.0 12.0 0.00 0.00 0.00 47 1018.8
20210422012401 49 32 3.0 12.0 0.00 0.00 0.00 46 1018.7
20210422011902 49 18 0.0 12.0 0.00 0.00 0.00 46 1018.5
20210422011401 50 17 0.0 12.0 0.00 0.00 0.00 46 1018.5
20210422010901 50 39 3.0 12.0 0.00 0.00 0.00 46 1018.3
20210422010401 50 28 0.0 15.0 0.00 0.00 0.00 46 1018.1
20210422005900 51 38 0.0 15.0 0.00 0.00 0.00 45 1018.0
20210422005400 51 16 7.0 15.0 0.00 0.00 0.00 45 1017.8
20210422004900 51 32 6.0 15.0 0.00 0.00 0.00 46 1017.8
20210422004400 51 38 6.0 15.0 0.00 0.00 0.00 49 1017.6
20210422003900 51 35 9.0 15.0 0.00 0.00 0.00 49 1017.5
20210422003400 51 28 3.0 15.0 0.00 0.00 0.00 48 1017.4
20210422002900 52 36 2.0 15.0 0.00 0.00 0.00 48 1017.4
20210422002359 52 32 4.0 15.0 0.00 0.00 0.00 48 1017.1
20210422001859 52 36 3.0 15.0 0.00 0.00 0.00 47 1017.0
20210422001359 52 36 4.0 15.0 0.00 0.00 0.00 47 1017.0
20210422000859 53 39 3.0 15.0 0.00 0.00 0.00 46 1017.0
20210422000359 53 43 6.0 19.0 0.00 0.00 0.00 46 1017.0
20210421235859 53 32 6.0 19.0 0.00 0.00 0.00 46 1017.0
20210421235358 53 36 0.0 19.0 0.00 0.00 0.00 46 1016.8
20210421234858 54 31 6.0 19.0 0.00 0.00 0.00 45 1016.7
20210421234358 54 62 0.0 19.0 0.00 0.00 0.00 45 1016.5
20210421233858 54 28 2.0 19.0 0.00 0.00 0.00 44 1016.4
20210421233358 55 36 10.0 19.0 0.00 0.00 0.00 43 1016.4
20210421232858 56 40 5.0 19.0 0.00 0.00 0.00 44 1016.3
20210421232358 56 37 1.0 19.0 0.00 0.00 0.00 44 1016.2
20210421231857 56 37 2.0 19.0 0.00 0.00 0.00 43 1016.1
20210421231357 56 30 1.0 19.0 0.00 0.00 0.00 43 1016.1